Tracking 30995 objects as of 5-Jul-2025
HD Live streaming from Space Station
objects crossing your sky now

OBJECT L

Track OBJECT L now!
10-day predictions


NORAD ID: 51834
Int'l Code: 2022-019L
Perigee: 438.8 km
Apogee: 445.8 km
Inclination: 97.4 °
Period: 93.3 minutes
Semi major axis: 6813 km
RCS: Unknown
Launch date: February 27, 2022
Source: People's Republic of China (PRC)
Launch site: Wenchang Satellite Launch Center (WSC)
Your satellite tracking list
Your tracking list is empty




NASA's NSSDC Master Catalog

Two Line Element Set (TLE):
1 51834U 22019L   25186.50231818  .00023900  00000-0  53019-3 0  9990
2 51834  97.3945 267.1300 0005141 308.0046  52.0737 15.43718149186092
Source of the keplerian elements: AFSPC